Tucson, AZ

2:50 PM MST on September 26, 2016 (GMT -0700)
Tucson International

Weather History for KTUS - May, 2013

Change the Weather History Date:

Wednesday, May 15, 2013

  Actual Average Record
Temperature  
Mean Temperature 88 °F 76 °F  
Max Temperature 98 °F 91 °F 104 °F (1934)
Min Temperature 77 °F 60 °F 43 °F (1933)
Degree Days  
Heating Degree Days 0 0  
Month to date heating degree days 0 3  
Since 1 July heating degree days 1363 1509  
Cooling Degree Days 23 11  
Month to date cooling degree days 182 134  
Year to date cooling degree days 455 288  
Growing Degree Days 34 (Base 50)    
Moisture  
Dew Point 30 °F    
Average Humidity 16    
Maximum Humidity 24    
Minimum Humidity 8    
Precipitation  
Precipitation 0.00 in 0.01 in 1.34 in (1931)
Month to date precipitation 0.01 0.11  
Year to date precipitation 1.74 2.95  
Snow  
Snow 0.00 in - - ()
Month to date snowfall 0.0  
Snow Depth 0.00 in    
Sea Level Pressure  
Sea Level Pressure 29.91 in    
Wind  
Wind Speed 11 mph (SW)    
Max Wind Speed 21 mph    
Max Gust Speed 27 mph    
Visibility 10 miles    
Events      
T = Trace of Precipitation, MM = Missing Value Source: NWS Daily Summary

Daily Weather History Graph

Daily Weather History Graph

Search for Another Location

Airport or City:

Trip Planner

Search our weather history database for the weather conditions in past years. The results will help you decide how hot, cold, wet, or windy it might be!

Date:

Astronomy

May. 15, 2013 Rise Set
Actual Time 5:26 AM MST 7:14 PM MST
Civil Twilight 4:59 AM MST 7:41 PM MST
Nautical Twilight 4:26 AM MST 8:14 PM MST
Astronomical Twilight 3:52 AM MST 8:48 PM MST
Moon 10:01 AM MST (5/15) 11:43 PM MST (5/15)
Length of Visible Light 14h 42m
Length of Day
13h 48m
Waxing Crescent, 28% of the Moon is Illuminated
May 15
Waxing Crescent
May 17
First Quarter
May 24
Full
May 31
Last Quarter
Jun 8
New

Hourly Weather History & Observations

Time (MST) Temp. Dew Point Humidity Pressure Visibility Wind Dir Wind Speed Gust Speed Precip Events Conditions
12:53 AM 78.1 °F 33.1 °F 19% 29.85 in 10.0 mi South 10.4 mph - N/A   Clear
1:53 AM 79.0 °F 32.0 °F 18% 29.85 in 10.0 mi South 11.5 mph - N/A   Clear
2:53 AM 73.9 °F 32.0 °F 21% 29.86 in 10.0 mi SW 4.6 mph - N/A   Clear
3:53 AM 75.9 °F 30.9 °F 19% 29.88 in 10.0 mi Calm Calm - N/A   Clear
4:53 AM 73.0 °F 32.0 °F 22% 29.89 in 10.0 mi SSE 9.2 mph - N/A   Clear
5:53 AM 72.0 °F 32.0 °F 23% 29.91 in 10.0 mi SE 12.7 mph - N/A   Clear
6:53 AM 73.9 °F 32.0 °F 21% 29.92 in 10.0 mi SE 9.2 mph - N/A   Clear
7:53 AM 81.0 °F 32.0 °F 17% 29.92 in 10.0 mi South 11.5 mph - N/A   Clear
9:53 AM 82.0 °F 32.0 °F 16% 30.05 in 10.0 mi East 5.8 mph - N/A   Clear
10:53 AM 86.0 °F 34.0 °F 16% 30.03 in 10.0 mi NW 9.2 mph - N/A   Clear
11:53 AM 93.9 °F 27.0 °F 9% 30.01 in 10.0 mi WNW 16.1 mph 21.9 mph N/A   Clear
12:53 PM 96.1 °F 25.0 °F 8% 29.99 in 10.0 mi WSW 15.0 mph - N/A   Clear
1:53 PM 96.1 °F 26.1 °F 8% 29.98 in 10.0 mi WSW 8.1 mph 20.7 mph N/A   Clear
2:53 PM 97.0 °F 26.1 °F 8% 29.95 in 10.0 mi West 15.0 mph 26.5 mph N/A   Clear
3:53 PM 96.1 °F 28.0 °F 9% 29.93 in 10.0 mi WSW 10.4 mph 25.3 mph N/A   Clear
4:53 PM 95.0 °F 28.0 °F 9% 29.92 in 10.0 mi WNW 17.3 mph 24.2 mph N/A   Clear
5:53 PM 93.9 °F 28.0 °F 10% 29.91 in 10.0 mi WSW 19.6 mph 26.5 mph N/A   Clear
6:53 PM 91.0 °F 28.0 °F 10% 29.91 in 10.0 mi West 13.8 mph - N/A   Clear
7:53 PM 89.1 °F 28.9 °F 12% 29.93 in 10.0 mi West 15.0 mph 21.9 mph N/A   Clear
8:53 PM 86.0 °F 28.0 °F 12% 29.81 in 10.0 mi WNW 11.5 mph - N/A   Clear
9:53 PM 82.9 °F 28.0 °F 14% 29.83 in 10.0 mi WNW 6.9 mph - N/A   Clear
10:53 PM 80.1 °F 28.0 °F 15% 29.83 in 10.0 mi WNW 8.1 mph - N/A   Clear
11:53 PM 77.0 °F 28.9 °F 17% 29.83 in 10.0 mi SE 4.6 mph - N/A   Clear